#timestamp,LO_Frequency,Hit,StdDev 
1575928815.8,286046998.0,N
1575928835.6,286046996.7,N
1575928855.5,286046998.0,N
1575928875.3,286046995.6,N
1575928895.2,286046994.6,N
1575928915.9,286047000.8,N
1575928935.7,286047000.5,N
1575928955.6,286046997.9,N
1575928975.4,286047000.4,N
1575928995.3,286047003.6,N
1575929015.1,286047001.0,N
1575929016.0,286047001.0,N
1575929035.8,286046997.2,N
1575929055.7,286047002.8,N
1575929075.5,286047001.9,N
1575929095.3,286047007.4,N
1575929115.2,286047011.7,Y
1575929135.0,286047011.6,P
1575929135.9,286047011.6,N
1575929155.8,286047008.8,N
1575929175.6,286047006.4,N
1575929195.4,286047005.7,N
1575929215.3,286047002.3,N
1575929235.1,286047005.0,N
1575929255.9,286047004.8,N
1575929275.7,286047002.9,N
1575929295.5,286047003.5,N
1575929315.4,286047005.2,N
1575929335.2,286047010.8,N
1575929355.0,286047009.3,N
1575929355.9,286047009.3,N
1575929375.8,286047009.5,N
1575929395.6,286047009.8,N
1575929415.5,286047008.5,N
1575929435.3,286047006.9,N
1575929455.1,286047024.8,Y
1575929475.9,286047002.6,P
1575929495.7,286047001.8,N
1575929515.6,286047003.9,N
1575929535.4,286047007.2,Y
1575929555.3,286047000.1,P
1575929575.1,286046995.4,N
1575929576.0,286046995.4,N
1575929595.8,286046999.6,N
1575929615.7,286047004.0,N
1575929635.5,286047005.1,N
1575929655.3,286047007.0,N
1575929675.2,286047009.0,N
1575929695.0,286047005.8,N
1575929695.9,286047005.8,N
1575929715.8,286047009.4,N
1575929735.6,286047008.0,N
1575929755.4,286047008.4,N
1575929775.3,286047004.6,N
1575929795.1,286046998.1,N
1575929815.9,286047004.1,N
1575929865.7,286046995.6,E
1575929875.6,286046997.8,N
1575929895.5,286046998.6,P
1575929915.3,286047001.5,P
1575929935.2,286047001.8,N
1575929955.9,286047006.6,Y
1575929975.7,286047004.9,P
1575929995.6,286047006.3,N
1575930015.4,286047005.1,N
1575930035.3,286047000.3,N
1575930055.1,286046999.6,N
1575930075.9,286047004.1,N
1575930095.7,286047008.7,Y
1575930115.5,286047003.1,P
1575930135.4,286046999.7,P
1575930155.2,286047005.6,P
1575930175.1,286047003.7,N
1575930176.0,286047003.7,N
1575930195.8,286047002.1,N
1575930215.6,286046998.2,N
1575930235.5,286046998.9,N
1575930255.3,286046995.9,N
1575930275.2,286046994.6,N
1575930295.9,286046992.1,N
1575930315.7,286046992.1,N
1575930335.6,286046996.2,N
1575930355.4,286046991.9,N
1575930375.2,286047000.9,N
1575930395.1,286047004.1,N
1575930396.0,286047004.1,N
1575930415.8,286047005.4,N
1575930435.7,286047009.1,N
1575930455.5,286047006.0,N
1575930475.3,286047003.6,N
1575930495.2,286047001.3,N
1575930515.0,286047009.3,N
1575930515.9,286047009.3,N
1575930535.8,286047010.5,N
1575930555.6,286047006.7,N
1575930575.4,286047005.6,N
1575930595.3,286047003.9,N
1575930615.1,286047005.6,N
1575930635.9,286047001.9,N
1575930655.7,286047006.9,N
1575930675.5,286047002.7,N
1575930695.4,286046999.5,N
1575930715.2,286047000.6,N
1575930735.0,286047002.0,N
1575930736.0,286047002.0,N
1575930755.8,286047001.6,N
1575930775.6,286047000.1,N
1575930795.5,286046994.6,N
1575930815.3,286046998.2,N
1575930835.1,286047003.6,N
1575930855.9,286047003.7,N
1575930875.7,286047007.4,N
1575930895.6,286047003.0,N
1575930915.4,286047000.2,N
1575930935.2,286046997.4,N
1575930955.1,286046995.3,N
1575930956.0,286046995.3,N
1575930975.8,286047001.1,N
1575930995.7,286047012.6,Y
1575931015.5,286047014.3,P
1575931035.3,286047018.7,P
1575931055.2,286047013.7,N
1575931075.9,286047011.0,N
1575931095.7,286047020.5,Y
1575931115.6,286047014.0,P
1575931135.4,286047011.3,P
1575931155.3,286047006.2,P
1575931175.1,286047006.3,N
1575931176.0,286047006.3,N
1575931195.8,286047004.0,N
1575931215.7,286047000.8,N
1575931235.5,286046997.9,N
1575931255.3,286046999.1,N
1575931275.2,286046993.5,N
1575931295.0,286046990.9,N
1575931295.9,286046990.9,N
1575931315.8,286046986.6,N
1575931335.6,286046987.4,N
1575931355.4,286046994.4,N
1575931375.3,286046997.9,N
1575931395.1,286046994.4,N
1575931415.9,286046985.7,N
1575931435.7,286046983.8,N
1575931455.5,286046981.4,N
1575931475.4,286046984.0,N
1575931495.2,286046983.7,N
1575931515.0,286046984.7,N
1575931515.9,286046984.7,N
1575931535.8,286046982.3,N
1575931555.6,286046989.1,N
1575931575.5,286046991.9,N
1575931595.3,286046992.3,N
1575931615.1,286046988.0,N
1575931635.9,286046985.8,N
1575931655.7,286046985.7,N
1575931675.6,286046989.9,N
1575931695.4,286047005.3,N
1575931715.2,286047007.2,N
1575931735.1,286047002.3,N
1575931736.0,286047002.3,N
1575931755.8,286046999.5,N
1575931775.6,286047003.6,N
1575931795.5,286047003.4,N
1575931815.3,286046996.8,N
1575931835.2,286047000.2,N
1575931855.9,286046995.6,N
1575931875.7,286046992.7,N
1575931895.6,286046993.4,N
1575931915.4,286046998.6,N
1575931935.2,286047003.6,N
1575931955.1,286047009.5,N
1575931956.0,286047009.5,N
1575931975.8,286047007.7,N
1575931995.7,286047003.2,N
1575932015.5,286047002.1,N
1575932035.3,286046997.5,N
1575932055.2,286046995.3,N
1575932075.0,286046995.0,N
1575932075.9,286046995.0,N
1575932095.8,286046996.2,N
1575932115.6,286046996.4,N
1575932135.5,286046995.9,N
1575932155.3,286046997.0,N
1575932175.1,286046990.5,N
1575932195.9,286046984.5,N
1575932215.7,286046983.6,N
1575932235.6,286046977.0,Y
1575932255.4,286046972.4,P
1575932275.3,286046973.4,N
1575932295.1,286046978.4,N
1575932296.0,286046978.4,N
1575932315.8,286046976.7,N
1575932335.7,286046972.3,Y
1575932355.5,286046991.7,P
1575932375.4,286046997.4,N
1575932395.2,286046996.5,N
